Home   Weather   Brønnøysund   Past weeks

Flag for Norway Past Weather in Brønnøysund, Norway — Yesterday and Last 2 Weeks

Now
39 °F

Passing clouds.


Feels Like: 31 °F
Forecast: 40 / 45 °F
Wind: 15 mph from North

Location: Bronnoysund / Bronnoy

Current Time: Dec 5, 2016 at 7:52:36 pm

Latest Report: Dec 5, 2016 at 7:20 pm


Visibility: N/A

Pressure: 30.07 "Hg

Humidity: 61%

Dew Point: 27 °F

Location of BrønnøysundLocation

Past Weather in Brønnøysund — Graph

°F

Brønnøysund Temperature Yesterday

Maximum temperature yesterday: 46 °F (at 4:50 pm)
Minimum temperature yesterday: 34 °F (at 12:20 am)
Average temperature yesterday: 42 °F

High & Low Weather Summary for the Past Weeks

 TemperatureHumidityPressure
High46 °F (Nov 25, 12:50 pm)100% (Nov 21, 8:20 pm)30.33 "Hg (Nov 21, 8:20 pm)
Low27 °F (Dec 3, 7:20 am)48% (Nov 27, 1:50 am)29.24 "Hg (Nov 29, 8:50 pm)
Average38 °F86%29.76 "Hg
* Reported Nov 20 6:20 pm — Dec 5 6:50 pm, Brønnøysund, Weather by CustomWeather, © 2016

Note: Actual official high and low records may vary slightly from our data, if they occured in-between our weather recording intervals... More about our weather records

Advertising

Brønnøysund Weather History for the Previous 24 Hours

Scroll right to see more
 ConditionsComfort  
Time TempWeatherWind HumidityBarometerVisibility
6:50 pm
Mon, Dec 5
37 °FScattered showers. Passing clouds.12 mph70%30.04 "HgN/A
6:20 pm37 °FScattered showers. Passing clouds.10 mph75%30.04 "HgN/A
5:50 pm39 °FPartly cloudy.14 mph61%30.04 "HgN/A
5:20 pm37 °FPassing clouds.12 mph75%30.01 "HgN/A
4:50 pm37 °FScattered showers. Passing clouds.17 mph81%30.01 "HgN/A
4:20 pm37 °FRain showers. Passing clouds.7 mph81%29.98 "HgN/A
3:50 pm36 °FSprinkles. Passing clouds.8 mph87%29.98 "HgN/A
3:20 pm36 °FSprinkles. Passing clouds.15 mph87%29.98 "HgN/A
2:50 pm37 °FSprinkles. Partly cloudy.9 mph87%29.95 "HgN/A
2:20 pm36 °FSprinkles. Passing clouds.9 mph93%29.95 "HgN/A
1:50 pm34 °FSprinkles. Broken clouds.14 mph93%29.92 "Hg4 mi
1:20 pm37 °FSprinkles. Scattered clouds.21 mph81%29.92 "HgN/A
12:50 pm39 °FSprinkles. Scattered clouds.14 mph70%29.92 "HgN/A
12:20 pm37 °FSprinkles. Scattered clouds.8 mph87%29.92 "HgN/A
11:50 am37 °FSprinkles. Broken clouds.15 mph87%29.92 "HgN/A
11:20 am36 °FSprinkles. Broken clouds.14 mph87%29.89 "HgN/A
10:50 am36 °FSprinkles. Broken clouds.10 mph93%29.89 "HgN/A
10:20 am39 °FBroken clouds.14 mph75%29.86 "HgN/A
9:50 am37 °FPassing clouds.18 mph87%29.86 "HgN/A
9:20 am37 °FSprinkles. Partly cloudy.18 mph87%29.83 "HgN/A
8:50 am37 °FSprinkles. Passing clouds.17 mph87%29.83 "HgN/A
8:20 am37 °FSprinkles. Partly cloudy.22 mph87%29.80 "HgN/A
7:50 am36 °FRain showers. Partly cloudy.22 mph93%29.80 "Hg2 mi
7:20 am37 °FRain showers. Partly cloudy.14 mph87%29.77 "HgN/A
6:50 am37 °FSprinkles. Partly cloudy.17 mph87%29.77 "HgN/A
6:20 am37 °FSprinkles. Partly cloudy.16 mph93%29.74 "HgN/A
5:50 am36 °FSprinkles. Partly cloudy.21 mph93%29.74 "HgN/A
5:20 am37 °FSprinkles. Partly cloudy.23 mph93%29.74 "HgN/A
4:50 am37 °FSprinkles. Mostly cloudy.22 mph87%29.71 "HgN/A
4:20 am37 °FSprinkles. Partly cloudy.21 mph93%29.71 "HgN/A
3:50 am39 °FSprinkles. Partly cloudy.22 mph81%29.71 "HgN/A
3:20 am41 °FPartly cloudy.22 mph76%29.68 "HgN/A
2:50 am41 °FSprinkles. Partly cloudy.22 mph76%29.65 "HgN/A
2:20 am41 °FMostly cloudy.20 mph76%29.65 "HgN/A
1:50 am41 °FSprinkles. Partly cloudy.17 mph76%29.62 "HgN/A
1:20 am41 °FSprinkles. Partly cloudy.15 mph81%29.62 "HgN/A
12:50 am41 °FPassing clouds.12 mph70%29.62 "HgN/A
12:20 am41 °FPassing clouds.15 mph76%29.59 "HgN/A
11:50 pm
Sun, Dec 4
39 °FSprinkles. Mostly cloudy.20 mph81%29.59 "HgN/A
11:20 pm41 °FPartly cloudy.17 mph87%29.56 "HgN/A
10:50 pm41 °FPassing clouds.18 mph87%29.56 "HgN/A
10:20 pm43 °FPartly cloudy.23 mph81%29.53 "HgN/A
9:50 pm43 °FSprinkles. Partly cloudy.23 mph87%29.53 "HgN/A
9:20 pm45 °FPassing clouds.21 mph87%29.53 "HgN/A
8:50 pm46 °FPartly cloudy.20 mph87%29.53 "HgN/A
8:20 pm46 °FPartly cloudy.22 mph87%29.53 "HgN/A
7:50 pm46 °FDrizzle. Low clouds.20 mph93%29.53 "HgN/A
7:20 pm45 °FPassing clouds.23 mph100%29.53 "Hg6 mi
Weather by CustomWeather, © 2016

See weather overviewHow to use our weather pages